Location: B�rgermoos
(47.6500°N, 9.0667°E)
Time: 02:22:06
(UTC+00:00)

Tiros 1 - Pass Details

Date: 12 August 2021
Orbit: 630 x 663 km, 48.4° (Epoch: 16 September)

Event Time Altitude Azimuth Distance (km) Brightness Sun altitude
Rises 12:36:34 0° 210° (SSW) 2,981 11.1 54.3°
Reaches altitude 10° 12:39:12 10° 198° (SSW) 2,073 10.5 54.1°
Maximum altitude 12:43:08 26° 143° (SE) 1,306 9.3 53.7°
Drops below altitude 10° 12:47:06 10° 87° (E) 2,080 9.7 53.4°
Sets 12:49:45 0° 75° (ENE) 2,993 10.3 53.1°
